Simultaneous Nadir Overpasses (SNOs) Predictions

Prediction of SNOs between GOES-17 and NPP Satellite Orbit:

Table of predicted SNOs for the next 14.0 days since TLE Epoch: 10/12/2024
Index Date Time (GOES-17) GOES-17 Lat,Lon NPP Lat,Lon Distance(km) Time Diff (sec)
1 10/13/2024 08:25:54 -0.01,-104.74 0.04,-104.94 23.64 80
2 10/14/2024 08:04:31 -0.01,-104.74 -0.98,-100.42 492.86 80
3 10/15/2024 20:26:28 0.01,-104.76 -0.22,-105.73 110.61 80
4 10/16/2024 20:10:24 0.01,-104.77 0.82,-101.20 406.55 80
5 10/18/2024 08:32:14 -0.01,-104.78 0.36,-106.48 193.03 80
6 10/19/2024 08:10:49 -0.01,-104.79 -0.63,-101.94 323.57 80
7 10/20/2024 20:32:46 0.01,-104.79 -0.53,-107.26 280.95 80
8 10/21/2024 20:16:42 0.02,-104.80 0.47,-102.72 235.94 80
9 10/23/2024 08:38:31 -0.03,-104.81 0.67,-108.00 363.05 80
10 10/24/2024 08:17:07 -0.03,-104.82 -0.34,-103.47 153.71 80
11 10/25/2024 20:39:03 0.03,-104.82 -0.83,-108.78 450.73 80
